| time (UTC) | temp F | wind direction | speed MPH | gust MPH | rain 1hr in | rain 24hr in | rain mn in | humidity % | barometer mb |
| 20260831094516 | 84 | 0.0 | 0.0 | 0.00 | 0.00 | 0.00 | 61 | 989.5 | |
| 20260831093516 | 85 | 0.0 | 0.0 | 0.00 | 0.00 | 0.00 | 60 | 989.5 | |
| 20260831092516 | 85 | 249 | 4.0 | 8.0 | 0.00 | 0.00 | 0.00 | 60 | 989.4 |
| 20260831091556 | 85 | 219 | 1.0 | 3.0 | 0.00 | 0.00 | 0.00 | 59 | 989.3 |
| 20260831090536 | 85 | 0.0 | 0.0 | 0.00 | 0.00 | 0.00 | 57 | 989.2 | |
| 20260831085516 | 86 | 247 | 2.0 | 3.0 | 0.00 | 0.00 | 0.00 | 56 | 989.2 |
| 20260831084516 | 86 | 252 | 0.0 | 2.0 | 0.00 | 0.00 | 0.00 | 55 | 989.2 |
| 20260831083516 | 86 | 0.0 | 2.0 | 0.00 | 0.00 | 0.00 | 54 | 989.1 | |
| 20260831082536 | 86 | 236 | 0.0 | 2.0 | 0.00 | 0.00 | 0.00 | 54 | 989.0 |
| 20260831081516 | 86 | 191 | 1.0 | 6.0 | 0.00 | 0.00 | 0.00 | 54 | 989.1 |
| 20260831080516 | 86 | 226 | 1.0 | 5.0 | 0.00 | 0.00 | 0.00 | 52 | 989.1 |
| 20260831075516 | 87 | 243 | 1.0 | 3.0 | 0.00 | 0.00 | 0.00 | 52 | 989.0 |
| 20260831074516 | 87 | 207 | 0.0 | 1.0 | 0.00 | 0.00 | 0.00 | 52 | 988.9 |
| 20260831073516 | 87 | 185 | 1.0 | 4.0 | 0.00 | 0.00 | 0.00 | 51 | 988.9 |
| 20260831072516 | 87 | 0.0 | 0.0 | 0.00 | 0.00 | 0.00 | 50 | 988.9 | |
| 20260831071516 | 87 | 194 | 0.0 | 2.0 | 0.00 | 0.00 | 0.00 | 50 | 988.8 |
| 20260831070516 | 87 | 174 | 0.0 | 1.0 | 0.00 | 0.00 | 0.00 | 50 | 988.8 |
| 20260831065516 | 87 | 201 | 0.0 | 1.0 | 0.00 | 0.00 | 0.00 | 51 | 988.9 |
| 20260831064516 | 87 | 0.0 | 1.0 | 0.00 | 0.00 | 0.00 | 51 | 989.0 | |
| 20260831063516 | 87 | 0.0 | 0.0 | 0.00 | 0.00 | 0.00 | 51 | 989.0 | |
| 20260831062516 | 87 | 0.0 | 0.0 | 0.00 | 0.00 | 0.00 | 51 | 988.9 | |
| 20260831061516 | 87 | 0.0 | 0.0 | 0.00 | 0.00 | 0.00 | 51 | 988.9 | |
| 20260831060516 | 88 | 0.0 | 0.0 | 0.00 | 0.00 | 0.00 | 51 | 988.9 | |
| 20260831055516 | 88 | 0.0 | 0.0 | 0.00 | 0.00 | 0.00 | 50 | 989.0 | |
| 20260831054516 | 88 | 0.0 | 1.0 | 0.00 | 0.00 | 0.00 | 50 | 989.0 | |
| 20260831053516 | 88 | 0.0 | 1.0 | 0.00 | 0.00 | 0.00 | 50 | 989.0 | |
| 20260831052536 | 88 | 0.0 | 1.0 | 0.00 | 0.00 | 0.00 | 50 | 989.0 | |
| 20260831051516 | 88 | 0.0 | 0.0 | 0.00 | 0.00 | 0.00 | 49 | 988.9 | |
| 20260831050536 | 88 | 0.0 | 1.0 | 0.00 | 0.00 | 0.00 | 49 | 988.8 | |
| 20260831045516 | 87 | 0.0 | 0.0 | 0.00 | 0.00 | 0.00 | 49 | 988.7 | |
| 20260831044516 | 87 | 0.0 | 0.0 | 0.00 | 0.00 | 0.00 | 50 | 988.8 | |
| 20260831043516 | 86 | 0.0 | 0.0 | 0.00 | 0.00 | 0.00 | 51 | 988.7 | |
| 20260831042517 | 86 | 0.0 | 0.0 | 0.00 | 0.00 | 0.00 | 51 | 988.8 | |
| 20260831041537 | 86 | 0.0 | 0.0 | 0.00 | 0.00 | 0.00 | 52 | 988.7 | |
| 20260831040516 | 85 | 0.0 | 0.0 | 0.00 | 0.00 | 0.00 | 52 | 988.8 | |
| 20260831035516 | 85 | 0.0 | 0.0 | 0.00 | 0.00 | 0.00 | 52 | 988.7 | |
| 20260831034516 | 85 | 0.0 | 0.0 | 0.00 | 0.00 | 0.00 | 53 | 988.6 | |
| 20260831033516 | 85 | 0.0 | 0.0 | 0.00 | 0.00 | 0.00 | 52 | 988.5 | |
| 20260831032517 | 86 | 0.0 | 0.0 | 0.00 | 0.00 | 0.00 | 51 | 988.5 | |
| 20260831031516 | 86 | 0.0 | 0.0 | 0.00 | 0.00 | 0.00 | 51 | 988.6 | |
| 20260831030517 | 87 | 0.0 | 0.0 | 0.00 | 0.00 | 0.00 | 50 | 988.5 | |
| 20260831025516 | 87 | 0.0 | 0.0 | 0.00 | 0.00 | 0.00 | 50 | 988.5 | |
| 20260831024517 | 88 | 0.0 | 0.0 | 0.00 | 0.00 | 0.00 | 49 | 988.3 | |
| 20260831023517 | 88 | 0.0 | 0.0 | 0.00 | 0.00 | 0.00 | 48 | 988.2 | |
| 20260831022556 | 89 | 0.0 | 0.0 | 0.00 | 0.00 | 0.00 | 47 | 988.0 | |
| 20260831021536 | 89 | 0.0 | 0.0 | 0.00 | 0.00 | 0.00 | 46 | 988.0 | |
| 20260831020516 | 90 | 0.0 | 0.0 | 0.00 | 0.00 | 0.00 | 45 | 987.8 | |
| 20260831015516 | 91 | 0.0 | 0.0 | 0.00 | 0.00 | 0.00 | 43 | 987.7 | |
| 20260831014516 | 91 | 0.0 | 0.0 | 0.00 | 0.00 | 0.00 | 43 | 987.6 | |
| 20260831013516 | 92 | 0.0 | 0.0 | 0.00 | 0.00 | 0.00 | 42 | 987.5 | |
| 20260831012516 | 93 | 0.0 | 0.0 | 0.00 | 0.00 | 0.00 | 41 | 987.4 | |
| 20260831011517 | 94 | 0.0 | 0.0 | 0.00 | 0.00 | 0.00 | 39 | 987.3 | |
| 20260831010536 | 95 | 0.0 | 1.0 | 0.00 | 0.00 | 0.00 | 38 | 987.3 | |
| 20260831005517 | 95 | 0.0 | 1.0 | 0.00 | 0.00 | 0.00 | 38 | 987.2 | |
| 20260831004537 | 96 | 156 | 1.0 | 2.0 | 0.00 | 0.00 | 0.00 | 37 | 987.1 |
| 20260831003516 | 97 | 150 | 0.0 | 1.0 | 0.00 | 0.00 | 0.00 | 36 | 987.1 |
| 20260831002517 | 98 | 162 | 0.0 | 2.0 | 0.00 | 0.00 | 0.00 | 35 | 987.2 |
| 20260831001517 | 98 | 141 | 0.0 | 1.0 | 0.00 | 0.00 | 0.00 | 35 | 987.2 |
| 20260831000516 | 98 | 0.0 | 0.0 | 0.00 | 0.00 | 0.00 | 36 | 987.2 | |
| 20260830235517 | 98 | 160 | 0.0 | 8.0 | 0.00 | 0.00 | 0.00 | 35 | 987.3 |
| 20260830234516 | 98 | 151 | 1.0 | 2.0 | 0.00 | 0.00 | 0.00 | 34 | 987.4 |
| 20260830233517 | 100 | 144 | 1.0 | 3.0 | 0.00 | 0.00 | 0.00 | 32 | 987.2 |
| 20260830232516 | 100 | 149 | 0.0 | 2.0 | 0.00 | 0.00 | 0.00 | 33 | 987.3 |
| 20260830231516 | 100 | 0.0 | 1.0 | 0.00 | 0.00 | 0.00 | 32 | 987.3 | |
| 20260830230516 | 100 | 147 | 1.0 | 4.0 | 0.00 | 0.00 | 0.00 | 32 | 987.3 |
| 20260830225536 | 100 | 135 | 0.0 | 3.0 | 0.00 | 0.00 | 0.00 | 32 | 987.4 |
| 20260830224516 | 101 | 156 | 3.0 | 4.0 | 0.00 | 0.00 | 0.00 | 31 | 987.5 |
| 20260830223516 | 100 | 155 | 1.0 | 3.0 | 0.00 | 0.00 | 0.00 | 32 | 987.5 |
| 20260830222517 | 101 | 137 | 2.0 | 3.0 | 0.00 | 0.00 | 0.00 | 30 | 987.5 |
| 20260830221516 | 100 | 170 | 2.0 | 5.0 | 0.00 | 0.00 | 0.00 | 30 | 987.5 |
| 20260830220516 | 101 | 130 | 2.0 | 7.0 | 0.00 | 0.00 | 0.00 | 31 | 987.6 |
| 20260830215516 | 101 | 132 | 0.0 | 3.0 | 0.00 | 0.00 | 0.00 | 31 | 987.6 |
| 20260830214517 | 100 | 94 | 0.0 | 3.0 | 0.00 | 0.00 | 0.00 | 32 | 987.6 |
| 20260830213536 | 100 | 170 | 1.0 | 3.0 | 0.00 | 0.00 | 0.00 | 33 | 987.7 |
| 20260830212516 | 101 | 203 | 2.0 | 5.0 | 0.00 | 0.00 | 0.00 | 32 | 987.9 |
| 20260830211516 | 101 | 154 | 1.0 | 5.0 | 0.00 | 0.00 | 0.00 | 32 | 987.9 |
| 20260830210517 | 101 | 153 | 2.0 | 4.0 | 0.00 | 0.00 | 0.00 | 32 | 988.0 |
| 20260830205536 | 101 | 140 | 1.0 | 4.0 | 0.00 | 0.00 | 0.00 | 32 | 988.1 |
| 20260830204516 | 99 | 171 | 1.0 | 9.0 | 0.00 | 0.00 | 0.00 | 33 | 988.3 |
| 20260830203516 | 99 | 138 | 1.0 | 5.0 | 0.00 | 0.00 | 0.00 | 33 | 988.4 |
| 20260830202517 | 100 | 146 | 2.0 | 4.0 | 0.00 | 0.00 | 0.00 | 33 | 988.6 |
| 20260830201517 | 101 | 200 | 1.0 | 4.0 | 0.00 | 0.00 | 0.00 | 33 | 988.6 |
| 20260830200516 | 99 | 156 | 1.0 | 6.0 | 0.00 | 0.00 | 0.00 | 35 | 988.7 |
| 20260830195516 | 99 | 151 | 1.0 | 4.0 | 0.00 | 0.00 | 0.00 | 35 | 988.9 |
| 20260830194516 | 100 | 112 | 1.0 | 3.0 | 0.00 | 0.00 | 0.00 | 35 | 989.1 |
| 20260830193516 | 100 | 154 | 3.0 | 5.0 | 0.00 | 0.00 | 0.00 | 34 | 989.1 |
| 20260830192516 | 100 | 193 | 3.0 | 5.0 | 0.00 | 0.00 | 0.00 | 35 | 989.2 |
| 20260830191516 | 99 | 118 | 4.0 | 12.0 | 0.00 | 0.00 | 0.00 | 36 | 989.4 |
| 20260830190516 | 100 | 202 | 0.0 | 1.0 | 0.00 | 0.00 | 0.00 | 36 | 989.6 |
| 20260830185516 | 101 | 177 | 2.0 | 5.0 | 0.00 | 0.00 | 0.00 | 36 | 989.7 |
| 20260830184517 | 101 | 253 | 3.0 | 9.0 | 0.00 | 0.00 | 0.00 | 35 | 989.7 |
| 20260830183517 | 101 | 251 | 3.0 | 7.0 | 0.00 | 0.00 | 0.00 | 35 | 989.8 |
| 20260830182516 | 100 | 253 | 2.0 | 7.0 | 0.00 | 0.00 | 0.00 | 35 | 990.0 |
| 20260830181516 | 100 | 156 | 1.0 | 4.0 | 0.00 | 0.00 | 0.00 | 36 | 990.1 |
| 20260830180516 | 99 | 239 | 1.0 | 5.0 | 0.00 | 0.00 | 0.00 | 38 | 990.3 |
| 20260830175516 | 99 | 156 | 2.0 | 7.0 | 0.00 | 0.00 | 0.00 | 38 | 990.4 |
| 20260830174516 | 98 | 146 | 2.0 | 5.0 | 0.00 | 0.00 | 0.00 | 40 | 990.6 |
| 20260830173516 | 98 | 208 | 1.0 | 4.0 | 0.00 | 0.00 | 0.00 | 40 | 990.7 |
| 20260830172536 | 97 | 179 | 1.0 | 4.0 | 0.00 | 0.00 | 0.00 | 43 | 990.9 |
| 20260830171517 | 98 | 191 | 2.0 | 4.0 | 0.00 | 0.00 | 0.00 | 42 | 991.1 |
| 20260830170516 | 96 | 120 | 0.0 | 2.0 | 0.00 | 0.00 | 0.00 | 45 | 991.1 |
| 20260830165516 | 96 | 182 | 2.0 | 5.0 | 0.00 | 0.00 | 0.00 | 45 | 991.3 |
| 20260830164516 | 95 | 187 | 1.0 | 4.0 | 0.00 | 0.00 | 0.00 | 46 | 991.4 |
| 20260830163516 | 94 | 217 | 1.0 | 6.0 | 0.00 | 0.00 | 0.00 | 48 | 991.4 |
| 20260830162516 | 94 | 266 | 1.0 | 6.0 | 0.00 | 0.00 | 0.00 | 49 | 991.6 |
| 20260830161516 | 93 | 246 | 4.0 | 7.0 | 0.00 | 0.00 | 0.00 | 50 | 991.6 |
| 20260830160517 | 93 | 172 | 2.0 | 6.0 | 0.00 | 0.00 | 0.00 | 50 | 991.6 |
| 20260830155516 | 92 | 194 | 0.0 | 3.0 | 0.00 | 0.00 | 0.00 | 51 | 991.4 |
| 20260830154516 | 91 | 206 | 2.0 | 3.0 | 0.00 | 0.00 | 0.00 | 53 | 991.5 |
| 20260830153516 | 91 | 153 | 1.0 | 2.0 | 0.00 | 0.00 | 0.00 | 55 | 991.5 |
| 20260830152516 | 91 | 250 | 2.0 | 5.0 | 0.00 | 0.00 | 0.00 | 55 | 991.6 |
| 20260830151556 | 90 | 0.0 | 2.0 | 0.00 | 0.00 | 0.00 | 56 | 991.6 | |
| 20260830150516 | 90 | 234 | 0.0 | 3.0 | 0.00 | 0.00 | 0.00 | 56 | 991.6 |
| 20260830145517 | 89 | 0.0 | 3.0 | 0.00 | 0.00 | 0.00 | 57 | 991.6 | |
| 20260830144516 | 88 | 176 | 1.0 | 4.0 | 0.00 | 0.00 | 0.00 | 59 | 991.5 |
| 20260830143516 | 87 | 217 | 0.0 | 3.0 | 0.00 | 0.00 | 0.00 | 60 | 991.5 |
| 20260830142516 | 87 | 202 | 0.0 | 4.0 | 0.00 | 0.00 | 0.00 | 60 | 991.5 |
| 20260830141516 | 87 | 262 | 0.0 | 3.0 | 0.00 | 0.00 | 0.00 | 61 | 991.7 |
| 20260830140536 | 86 | 166 | 1.0 | 3.0 | 0.00 | 0.00 | 0.00 | 63 | 991.6 |
| 20260830135516 | 86 | 223 | 1.0 | 3.0 | 0.00 | 0.00 | 0.00 | 65 | 991.6 |
| 20260830134516 | 84 | 176 | 0.0 | 2.0 | 0.00 | 0.00 | 0.00 | 67 | 991.6 |
| 20260830133516 | 83 | 0.0 | 0.0 | 0.00 | 0.00 | 0.00 | 70 | 991.5 | |
| 20260830132616 | 81 | 0.0 | 0.0 | 0.00 | 0.00 | 0.00 | 72 | 991.4 | |
| 20260830131516 | 81 | 0.0 | 0.0 | 0.00 | 0.00 | 0.00 | 72 | 991.3 | |
| 20260830130516 | 80 | 0.0 | 0.0 | 0.00 | 0.00 | 0.00 | 72 | 991.2 | |
| 20260830125516 | 80 | 0.0 | 0.0 | 0.00 | 0.00 | 0.00 | 70 | 991.1 | |
| 20260830124516 | 80 | 0.0 | 0.0 | 0.00 | 0.00 | 0.00 | 70 | 991.0 | |
| 20260830123516 | 79 | 0.0 | 0.0 | 0.00 | 0.00 | 0.00 | 71 | 990.8 | |
| 20260830122516 | 78 | 0.0 | 0.0 | 0.00 | 0.00 | 0.00 | 74 | 990.7 | |
| 20260830121516 | 77 | 0.0 | 0.0 | 0.00 | 0.00 | 0.00 | 75 | 990.6 | |
| 20260830120516 | 77 | 0.0 | 0.0 | 0.00 | 0.00 | 0.00 | 75 | 990.5 | |
| 20260830115537 | 77 | 0.0 | 0.0 | 0.00 | 0.00 | 0.00 | 74 | 990.4 | |
| 20260830114516 | 77 | 0.0 | 0.0 | 0.00 | 0.00 | 0.00 | 73 | 990.2 | |
| 20260830113516 | 77 | 0.0 | 0.0 | 0.00 | 0.00 | 0.00 | 71 | 990.0 | |
| 20260830112516 | 78 | 0.0 | 0.0 | 0.00 | 0.00 | 0.00 | 70 | 990.0 | |
| 20260830111516 | 78 | 0.0 | 0.0 | 0.00 | 0.00 | 0.00 | 70 | 990.0 | |
| 20260830110536 | 78 | 0.0 | 0.0 | 0.00 | 0.00 | 0.00 | 69 | 990.0 | |
| 20260830105516 | 78 | 0.0 | 0.0 | 0.00 | 0.00 | 0.00 | 69 | 989.8 | |
| 20260830104516 | 78 | 0.0 | 0.0 | 0.00 | 0.00 | 0.00 | 68 | 989.6 | |
| 20260830103536 | 78 | 0.0 | 0.0 | 0.00 | 0.00 | 0.00 | 67 | 989.7 | |
| 20260830102536 | 78 | 0.0 | 0.0 | 0.00 | 0.00 | 0.00 | 66 | 989.7 | |
| 20260830101517 | 79 | 0.0 | 0.0 | 0.00 | 0.00 | 0.00 | 65 | 989.5 | |
| 20260830100516 | 79 | 0.0 | 0.0 | 0.00 | 0.00 | 0.00 | 64 | 989.5 | |
| 20260830095516 | 79 | 0.0 | 0.0 | 0.00 | 0.00 | 0.00 | 63 | 989.7 |